TimePST,TemperatureF,Dew PointF,Humidity,Sea Level PressureIn,VisibilityMPH,Wind Direction,Wind SpeedMPH,Gust SpeedMPH,PrecipitationIn,Events,Conditions,WindDirDegrees,DateUTC
12:00 AM,43.7,33.3,67,29.70,-9999.0,North,3.5,-,N/A,,Unknown,360,2013-11-17 08:00:00
1:00 AM,43.3,36.5,77,29.71,-9999.0,NNE,1.2,-,N/A,,Unknown,20,2013-11-17 09:00:00
2:00 AM,43.3,34.3,71,29.72,-9999.0,SE,6.9,-,N/A,,Unknown,130,2013-11-17 10:00:00
3:00 AM,44.2,35.8,72,29.71,-9999.0,ESE,17.3,-,N/A,,Unknown,110,2013-11-17 11:00:00
4:00 AM,44,35,62,29.71,,ESE,12.7,,,,,120,2013-11-17 12:00:00
4:00 AM,44.1,35.2,71,29.71,-9999.0,ESE,12.7,-,N/A,,Unknown,120,2013-11-17 12:00:00
5:00 AM,44.1,36.3,74,29.70,-9999.0,ESE,15.0,21.9,N/A,,Unknown,120,2013-11-17 13:00:00
6:00 AM,44.6,37.8,77,29.69,-9999.0,ESE,20.7,-,N/A,,Unknown,120,2013-11-17 14:00:00
7:00 AM,45.0,38.3,77,29.69,-9999.0,ESE,18.4,-,N/A,,Unknown,120,2013-11-17 15:00:00
8:00 AM,44.4,38.7,80,29.71,-9999.0,ESE,13.8,-,N/A,,Unknown,120,2013-11-17 16:00:00
9:00 AM,45.0,39.2,80,29.71,-9999.0,SE,8.1,-,N/A,,Unknown,130,2013-11-17 17:00:00
10:00 AM,47,39,65,29.72,,SE,4.6,,,,,140,2013-11-17 18:00:00
10:00 AM,47.1,39.0,73,29.72,-9999.0,SE,4.6,-,N/A,,Unknown,140,2013-11-17 18:00:00
11:00 AM,48.0,39.7,73,29.73,-9999.0,ESE,9.2,-,N/A,,Unknown,120,2013-11-17 19:00:00
12:00 PM,50.0,39.2,66,29.71,-9999.0,ESE,11.5,-,N/A,,Unknown,120,2013-11-17 20:00:00
1:00 PM,49.6,41.2,73,29.71,-9999.0,ESE,9.2,-,N/A,,Unknown,110,2013-11-17 21:00:00
2:00 PM,51.3,39.7,65,29.72,-9999.0,SSE,1.2,-,N/A,,Unknown,160,2013-11-17 22:00:00
3:00 PM,50.7,41.4,70,29.74,-9999.0,NNW,2.3,-,N/A,,Unknown,330,2013-11-17 23:00:00
4:00 PM,50,38,54,29.75,,SW,8.1,,,,,230,2013-11-18 00:00:00
4:00 PM,49.6,38.5,65,29.75,-9999.0,SW,8.1,-,N/A,,Unknown,230,2013-11-18 00:00:00
5:00 PM,47.3,37.2,68,29.77,-9999.0,SW,1.2,-,N/A,,Unknown,220,2013-11-18 01:00:00
6:00 PM,47.3,36.9,67,29.77,-9999.0,SE,3.5,-,N/A,,Unknown,140,2013-11-18 02:00:00
7:00 PM,47.1,35.6,64,29.78,-9999.0,South,2.3,-,N/A,,Unknown,190,2013-11-18 03:00:00
8:00 PM,46.6,36.1,67,29.78,-9999.0,SSE,4.6,-,N/A,,Unknown,160,2013-11-18 04:00:00
9:00 PM,45.1,36.5,72,29.80,-9999.0,SSW,2.3,-,N/A,,Unknown,200,2013-11-18 05:00:00
10:00 PM,46,37,63,29.81,,SE,2.3,,,,,130,2013-11-18 06:00:00
10:00 PM,46.4,37.4,71,29.81,-9999.0,SE,2.3,-,N/A,,Unknown,130,2013-11-18 06:00:00
11:00 PM,46.6,37.0,69,29.82,-9999.0,SSE,3.5,-,N/A,,Unknown,160,2013-11-18 07:00:00